Wind_Speed
30 27 25 25 26 29 30 29 26 23 22 21 17 16 18 19 20 20 20 19 19 19 17 17 17 17 16 16 15 14 14 14 15 16 16 17 17 16 16 16 16 16 17 17
32 30 27 26 26 26 28 28 27 26 23 23 22 19 21 21 21 21 19 19 19 18 17 17 17 16 16 15 15 14 14 15 16 17 17 17 17 17 17 17 16 16 16 18
32 30 28 28 26 25 27 28 28 28 25 24 22 22 23 23 23 23 20 20 19 19 18 18 17 16 16 15 15 14 14 15 15 16 17 17 17 17 17 16 16 16 16 18
32 32 31 27 25 26 27 29 30 30 28 27 26 25 25 25 25 23 22 20 20 19 18 18 17 17 16 16 15 14 15 14 14 15 15 16 17 17 17 17 17 18 18 17
31 31 31 29 28 28 30 31 32 31 30 28 27 27 27 26 23 22 21 20 20 20 19 18 18 17 17 15 15 15 14 14 14 15 15 15 16 17 17 18 18 17 16 17
32 31 29 28 29 30 31 32 32 32 31 29 29 28 26 24 24 22 21 21 20 20 19 18 18 17 16 16 15 14 14 15 15 15 16 16 16 16 17 17 17 18 17 17
33 32 29 28 29 29 32 33 32 32 32 31 31 28 26 24 24 22 21 21 21 20 19 18 18 18 17 16 16 15 15 15 15 15 16 16 16 17 17 17 18 18 17 17
34 34 32 30 29 30 31 29 31 31 31 32 31 28 26 25 24 22 21 20 20 20 19 19 18 18 17 17 16 16 16 15 15 15 15 16 17 17 18 18 18 18 18 18
36 36 35 32 32 31 29 29 30 31 31 30 29 27 26 25 23 21 21 20 20 20 20 19 19 18 18 18 17 17 17 16 15 15 15 15 16 17 17 18 18 18 18 19
35 34 34 31 32 31 30 30 30 31 31 28 28 27 24 24 22 22 21 20 20 21 20 20 20 19 18 18 18 18 17 17 16 16 16 16 16 17 17 18 19 19 19 20
35 34 34 31 31 29 29 30 29 28 28 27 25 24 24 23 22 21 21 21 21 20 20 20 20 19 19 19 19 18 18 17 17 17 17 17 17 17 18 19 19 20 21 22
33 33 32 30 32 31 30 30 29 28 28 27 26 25 24 23 22 21 21 21 21 21 20 20 20 20 19 19 18 18 18 18 18 18 18 18 18 19 20 20 21 22 23 23
32 30 30 30 30 30 29 29 29 29 28 26 25 25 24 23 22 21 21 21 21 21 20 20 19 19 19 19 19 19 19 19 19 19 19 19 19 20 21 21 22 23 23 24
33 31 30 30 30 30 29 28 28 27 27 26 25 25 24 23 22 21 21 21 21 21 21 21 20 19 19 19 19 19 19 19 20 20 20 20 20 21 22 23 23 24 24 25
31 31 30 29 30 30 30 29 28 27 27 26 26 25 24 23 22 21 21 21 21 20 20 20 20 20 20 20 20 20 20 20 21 21 21 22 22 22 23 23 24 24 24 25
28 28 28 28 28 29 29 28 28 28 27 27 26 25 24 24 23 22 22 21 21 20 20 20 20 20 20 20 20 20 21 21 21 21 21 22 22 22 23 23 24 24 24 25
28 27 27 27 28 29 28 28 27 27 27 27 26 25 24 23 23 22 22 21 20 20 20 20 20 20 20 20 20 20 20 20 21 21 21 21 22 22 23 23 24 24 25 26
27 28 27 27 27 28 28 28 27 26 26 25 25 25 24 23 23 22 21 21 21 20 20 19 19 20 21 21 20 20 20 21 21 21 21 21 21 22 23 24 25 26 27 27
27 27 28 27 26 27 27 26 26 25 25 24 24 24 22 22 21 21 20 21 21 20 20 20 19 20 21 20 21 21 20 20 20 21 21 22 22 23 24 25 26 27 28 28
26 26 26 25 25 24 25 25 25 25 25 24 23 22 21 21 21 21 21 21 21 21 21 21 21 21 21 21 20 21 20 19 20 21 22 22 23 23 24 25 25 26 27 27
25 25 25 24 23 22 23 23 24 24 24 23 23 22 21 21 21 20 20 20 20 20 21 21 21 21 21 22 22 22 22 22 21 22 22 23 23 24 24 25 26 26 27 28
23 24 24 24 23 22 21 21 21 21 21 21 20 20 20 20 20 20 19 19 19 19 19 20 20 21 22 22 22 22 22 21 22 22 22 23 23 24 24 25 26 27 28 29
22 23 24 24 23 22 22 21 20 20 19 18 18 18 19 18 18 18 18 18 17 17 18 18 19 19 19 20 20 20 20 20 21 22 22 23 23 24 25 26 27 27 28 29
20 21 21 21 21 20 19 19 19 19 19 18 18 18 18 17 17 17 17 17 17 16 16 16 16 16 17 17 17 17 18 19 20 21 22 23 24 25 26 27 28 29 29 30
19 20 20 21 20 20 19 18 17 18 17 17 17 17 17 17 17 16 16 16 15 15 15 15 15 16 16 16 17 17 18 20 21 22 23 24 25 26 27 28 29 29 30 30
17 18 19 20 19 19 18 17 16 16 16 16 16 15 15 15 14 14 14 14 14 14 15 15 15 16 16 16 17 18 20 21 22 23 24 25 26 27 28 28 29 29 30 31
16 16 16 17 17 17 16 16 16 15 15 15 15 15 14 14 14 14 14 14 14 14 14 15 15 16 16 17 19 20 21 22 23 24 25 25 26 27 28 28 29 30 31 32
Wind_Direction
201 202 210 217 215 214 214 215 215 222 236 247 242 237 247 248 250 250 252 252 255 259 263 265 269 272 274 274 271 271 269 266 261 257 256 256 255 254 253 256 255 254 257 258
202 202 205 210 214 214 215 214 216 217 228 241 247 242 246 249 252 253 253 253 255 258 261 263 266 269 273 273 272 269 267 265 262 256 254 255 255 255 254 257 256 258 260 260
205 207 209 211 210 212 211 212 215 218 224 233 237 240 246 250 252 253 252 252 254 257 260 262 265 268 271 272 270 266 264 263 264 257 254 254 253 253 254 258 259 262 262 262
206 208 214 212 211 213 214 216 216 218 222 230 235 240 245 249 251 253 251 251 253 255 258 262 264 265 268 267 265 266 263 263 265 260 256 256 254 253 253 256 261 263 263 263
208 209 211 210 210 213 215 219 219 218 218 226 233 239 243 248 252 255 252 253 255 255 258 260 262 264 265 263 262 264 263 262 264 263 261 259 257 255 255 256 260 261 265 265
210 210 209 210 213 214 216 220 222 223 223 227 232 237 242 244 249 250 250 252 254 255 258 261 263 262 263 261 259 262 263 262 262 264 265 262 260 259 258 259 261 262 265 267
211 213 212 212 215 215 217 220 221 224 226 229 233 235 241 244 246 249 250 253 253 255 257 258 259 262 261 258 258 259 262 264 265 265 264 262 261 262 261 262 263 265 267 267
211 213 213 213 216 218 220 221 223 225 227 230 234 236 240 244 246 248 249 251 252 254 256 256 257 259 260 258 259 261 262 264 266 265 263 261 262 262 261 263 264 265 267 268
212 213 214 212 213 217 219 222 224 225 228 230 233 235 238 241 243 245 247 249 251 254 257 256 256 257 258 258 259 261 262 265 264 264 264 263 263 263 263 265 267 268 269 270
213 214 215 215 215 218 221 222 224 226 228 229 231 235 239 240 240 242 246 249 252 253 256 254 254 254 256 257 259 259 260 262 264 264 265 265 265 265 264 265 267 269 271 272
217 218 217 218 218 218 219 220 222 222 226 230 232 234 238 239 241 243 246 248 249 249 251 251 251 252 253 255 257 259 260 262 264 263 264 264 267 269 269 268 270 271 273 272
215 215 218 219 220 219 220 221 222 224 227 231 233 234 237 239 239 241 244 245 247 249 248 248 248 248 250 253 255 258 261 262 263 265 267 268 269 270 272 273 273 273 274 273
217 217 219 221 220 218 219 219 220 223 226 228 230 233 236 238 239 239 241 243 246 247 245 244 245 246 247 249 252 257 260 261 263 266 270 271 271 272 274 277 277 277 277 276
218 219 220 219 218 218 218 218 219 222 224 227 230 232 235 236 237 239 242 244 245 245 244 243 244 246 246 248 253 256 260 262 265 268 270 270 273 274 275 277 278 279 279 278
218 219 220 218 217 217 216 217 219 221 223 227 230 232 235 238 238 239 241 242 244 244 243 242 244 247 249 253 256 258 261 264 267 268 269 272 274 276 277 279 280 280 281 280
216 216 213 212 213 214 216 217 219 221 224 228 230 232 235 237 238 240 241 241 243 245 245 245 246 248 252 254 257 260 263 265 267 268 270 272 274 277 279 281 283 283 282 282
212 210 209 209 212 215 216 217 218 221 224 227 230 233 236 238 239 240 240 240 243 246 247 247 248 250 252 255 259 263 266 268 271 273 275 277 278 280 281 282 284 285 286 285
210 210 210 211 213 216 215 215 218 220 224 227 230 233 235 235 237 239 241 242 243 245 247 249 249 251 254 258 263 268 271 274 275 274 276 278 279 281 282 283 285 286 287 288
211 210 211 212 215 214 215 216 219 222 225 228 229 231 233 237 239 239 240 240 242 245 247 250 254 256 259 263 265 267 269 271 273 275 276 278 279 282 284 286 288 288 288 289
207 208 208 209 212 212 212 215 219 223 225 226 227 229 233 238 240 240 240 240 243 246 250 254 257 258 261 265 268 267 267 270 274 277 278 279 281 284 287 290 291 291 291 292
205 207 208 212 209 208 212 215 218 221 222 224 226 228 232 236 240 241 243 244 245 249 253 255 258 259 262 264 268 269 269 273 276 278 280 281 283 286 289 291 292 292 293 293
204 206 206 208 209 209 211 213 215 217 218 219 223 226 230 234 239 242 244 246 247 251 254 257 258 261 263 265 268 272 274 275 277 279 282 284 285 287 289 290 291 292 293 294
200 203 205 207 207 210 212 214 217 219 218 219 223 228 231 234 237 240 242 244 246 249 254 258 261 262 264 266 269 273 275 277 280 282 284 285 286 288 289 291 292 294 295 296
195 197 199 202 204 205 209 213 217 218 219 222 226 230 233 236 239 241 242 245 248 251 254 259 263 265 266 269 271 274 278 281 284 285 287 288 290 291 292 294 295 296 297 298
191 194 197 199 201 204 208 212 215 215 218 222 227 232 236 239 240 242 243 245 248 251 255 259 262 266 269 273 276 280 282 285 288 289 290 291 292 293 295 295 296 297 298 298
188 191 194 197 200 204 207 211 213 216 220 225 230 233 235 237 238 241 244 247 249 253 257 260 265 269 273 277 280 283 285 286 287 290 292 293 293 294 295 296 297 297 297 298
187 188 191 195 199 204 208 211 215 219 223 226 228 230 232 236 240 243 246 249 252 257 262 266 271 275 279 283 285 287 288 289 291 292 293 294 295 296 297 297 297 298 298 299
Height
5770 5775 5781 5785 5790 5795 5800 5805 5809 5813 5815 5815 5815 5818 5821 5823 5825 5827 5829 5831 5832 5833 5834 5835 5836 5836 5836 5836 5836 5837 5837 5838 5839 5840 5841 5842 5843 5845 5846 5847 5848 5850 5851 5852
5765 5769 5774 5779 5784 5790 5795 5800 5805 5808 5811 5812 5812 5814 5817 5819 5821 5823 5825 5827 5828 5829 5831 5831 5832 5832 5832 5832 5832 5833 5833 5834 5835 5836 5837 5838 5839 5841 5842 5843 5844 5845 5847 5848
5760 5765 5768 5774 5779 5785 5790 5795 5799 5803 5807 5807 5809 5810 5813 5816 5817 5819 5821 5822 5824 5826 5827 5828 5828 5828 5829 5829 5828 5829 5830 5831 5831 5832 5833 5834 5835 5837 5838 5839 5840 5841 5842 5843
5755 5761 5764 5772 5777 5782 5785 5789 5793 5797 5800 5802 5804 5806 5809 5811 5813 5814 5817 5819 5820 5821 5823 5823 5824 5824 5825 5825 5825 5825 5826 5827 5828 5828 5829 5830 5831 5833 5834 5835 5836 5837 5838 5839
5750 5754 5760 5766 5771 5775 5779 5782 5786 5789 5793 5796 5799 5802 5804 5806 5808 5810 5812 5814 5816 5817 5818 5818 5819 5821 5821 5821 5821 5822 5823 5823 5824 5824 5825 5826 5827 5829 5830 5831 5832 5833 5833 5834
5744 5749 5754 5760 5764 5768 5774 5776 5780 5784 5787 5790 5794 5797 5798 5800 5803 5805 5808 5810 5811 5812 5814 5814 5816 5817 5817 5817 5818 5819 5819 5820 5820 5821 5822 5822 5824 5825 5826 5827 5828 5829 5829 5830
5738 5743 5748 5752 5757 5762 5768 5772 5775 5779 5782 5785 5788 5792 5794 5796 5799 5801 5803 5805 5807 5808 5809 5810 5811 5812 5813 5814 5815 5816 5816 5817 5817 5818 5818 5819 5820 5821 5822 5823 5824 5825 5825 5826
5732 5737 5744 5746 5751 5756 5761 5765 5769 5772 5775 5779 5782 5785 5789 5792 5794 5797 5799 5800 5802 5803 5805 5806 5807 5808 5809 5810 5811 5812 5813 5813 5814 5814 5815 5815 5816 5817 5818 5818 5819 5820 5821 5821
5726 5732 5735 5739 5744 5748 5754 5759 5763 5766 5770 5774 5778 5781 5783 5787 5789 5792 5794 5796 5797 5799 5800 5802 5803 5804 5805 5806 5807 5808 5809 5810 5810 5811 5811 5812 5812 5813 5814 5814 5815 5816 5816 5816
5719 5724 5728 5733 5738 5743 5749 5753 5758 5761 5765 5769 5773 5775 5778 5782 5785 5787 5789 5791 5792 5794 5795 5797 5798 5800 5801 5802 5803 5804 5805 5806 5806 5807 5808 5808 5808 5809 5809 5809 5810 5810 5811 5811
5713 5718 5723 5727 5733 5737 5742 5747 5750 5755 5760 5763 5767 5770 5774 5777 5780 5782 5784 5786 5787 5789 5790 5792 5793 5795 5797 5798 5799 5800 5801 5802 5802 5803 5803 5804 5804 5804 5804 5805 5805 5805 5805 5805
5708 5713 5718 5723 5728 5732 5737 5741 5746 5750 5755 5759 5763 5766 5769 5772 5775 5777 5779 5781 5782 5784 5785 5786 5788 5790 5792 5793 5794 5795 5796 5797 5798 5798 5799 5799 5800 5800 5799 5799 5799 5799 5799 5799
5703 5708 5713 5717 5721 5727 5732 5736 5741 5746 5750 5754 5757 5761 5764 5767 5770 5772 5774 5775 5777 5778 5780 5781 5783 5785 5787 5788 5790 5791 5791 5792 5793 5793 5794 5794 5794 5794 5794 5794 5793 5793 5793 5792
5698 5703 5707 5711 5716 5722 5727 5732 5735 5741 5745 5749 5753 5756 5759 5762 5764 5767 5769 5770 5772 5773 5775 5777 5779 5780 5782 5783 5785 5786 5787 5787 5788 5788 5788 5788 5789 5789 5789 5788 5788 5787 5786 5786
5694 5698 5702 5706 5711 5717 5722 5727 5731 5736 5740 5744 5748 5751 5754 5757 5760 5762 5764 5766 5767 5768 5770 5772 5774 5775 5777 5778 5780 5781 5781 5782 5782 5783 5783 5783 5783 5783 5782 5782 5781 5780 5779 5779
5689 5692 5697 5702 5707 5713 5718 5722 5727 5731 5736 5740 5743 5747 5749 5752 5755 5757 5759 5761 5762 5764 5765 5767 5769 5771 5772 5774 5775 5776 5776 5776 5777 5777 5777 5777 5777 5777 5776 5775 5775 5773 5772 5772
5685 5689 5694 5699 5704 5709 5713 5718 5722 5726 5731 5735 5738 5742 5745 5747 5750 5752 5754 5756 5758 5759 5761 5762 5764 5766 5767 5768 5770 5770 5770 5771 5771 5771 5771 5771 5771 5770 5770 5769 5768 5767 5766 5765
5681 5686 5691 5695 5700 5705 5709 5714 5718 5722 5726 5730 5734 5737 5740 5742 5745 5747 5749 5751 5753 5755 5756 5757 5759 5761 5762 5764 5764 5765 5765 5765 5765 5765 5765 5765 5764 5764 5764 5763 5762 5760 5759 5758
5678 5683 5687 5692 5696 5700 5705 5709 5714 5718 5722 5725 5729 5732 5735 5738 5740 5742 5744 5746 5748 5750 5752 5753 5755 5756 5757 5758 5759 5759 5759 5759 5759 5759 5759 5759 5758 5758 5757 5756 5755 5753 5752 5750
5675 5680 5684 5689 5693 5697 5701 5706 5710 5714 5717 5721 5724 5728 5731 5734 5736 5738 5740 5742 5744 5746 5747 5749 5750 5751 5752 5753 5753 5753 5753 5753 5753 5753 5753 5752 5752 5751 5750 5748 5747 5745 5744 5742
5673 5678 5682 5686 5689 5693 5698 5702 5706 5710 5714 5717 5721 5724 5727 5729 5732 5734 5736 5738 5739 5741 5742 5744 5745 5745 5746 5747 5747 5748 5747 5747 5747 5747 5746 5745 5744 5743 5742 5741 5740 5738 5736 5734
5671 5675 5680 5684 5687 5692 5696 5700 5703 5707 5710 5714 5717 5720 5723 5725 5727 5729 5731 5733 5735 5736 5737 5738 5739 5739 5740 5741 5741 5741 5741 5741 5740 5740 5739 5738 5738 5736 5735 5734 5732 5730 5728 5726
5669 5674 5678 5682 5686 5690 5694 5697 5701 5704 5707 5710 5714 5716 5719 5721 5723 5725 5727 5728 5730 5731 5732 5733 5733 5734 5734 5735 5735 5735 5735 5735 5734 5733 5733 5732 5730 5729 5728 5726 5724 5723 5721 5718
5668 5672 5676 5680 5684 5688 5692 5695 5698 5701 5704 5707 5710 5713 5715 5718 5719 5721 5723 5724 5725 5727 5727 5728 5728 5729 5730 5730 5729 5729 5729 5728 5728 5727 5726 5725 5723 5722 5720 5718 5716 5714 5712 5710
5668 5672 5675 5679 5683 5687 5690 5693 5696 5699 5702 5704 5707 5709 5712 5714 5715 5717 5718 5719 5721 5722 5723 5723 5724 5725 5725 5724 5724 5724 5723 5723 5722 5721 5719 5718 5716 5715 5712 5710 5708 5706 5704 5701
5668 5671 5675 5678 5682 5685 5688 5691 5694 5697 5700 5702 5704 5706 5708 5709 5711 5713 5714 5715 5716 5717 5718 5719 5719 5720 5720 5719 5719 5718 5717 5716 5715 5714 5712 5711 5709 5707 5704 5702 5700 5697 5695 5692
5668 5671 5674 5677 5680 5684 5687 5689 5692 5695 5697 5699 5701 5703 5705 5706 5707 5709 5710 5711 5712 5713 5714 5714 5714 5714 5714 5714 5713 5712 5711 5710 5708 5707 5705 5703 5701 5699 5697 5694 5692 5689 5686 5683